Weather in Vladimirovka

Russia / Lipetsk Oblast     52°28′39″N   38°44′32″E
temp.,
°C
wind,
m/s
gust,
m/s
humid.,
%
clouds,
%
prec.,
mm/h
press.,
hPa
HPBL,
m
14 august, sun
sun1400:00+22e2253100 0.0 102028
03:00+21nne1165100 0.0 101923
06:00+21nne3563100 0.1 1019122
09:00+23ne236494 0.1 1019258
12:00+24ne465795 0.0 1019614
15:00+25ene574386 0.0 1018617
18:00+25ene574354 0.0 1018685
21:00+22ne385087 0.0 1018214
15 august, mon
mon1500:00+21ne4105462 0.0 1017236
03:00+19ene4105757 0.0 1017201
06:00+18e39667 0.0 1017178
09:00+25e58445 0.0 1017512
12:00+30e783299 0.0 10161606
15:00+31e673184 0.0 10161929
18:00+30e693525 0.0 1015747
21:00+24ene5154783 0.0 1016394
16 august, tue
tue1600:00+24e7154453 0.0 1016529
03:00+22ese6154678 0.0 1017488
06:00+20e61441100 0.0 1018361
09:00+23e71235100 0.0 1018529
12:00+28e7828100 0.0 10171273
15:00+30e782770 0.0 10161500
18:00+29e583199 0.0 1016676
21:00+24e3940100 0.0 1016193
17 august, wed
wed1700:00+24ne3645100 0.0 1015113
03:00+21ene484974 0.0 1015133
06:00+22e395399 0.1 1015272
09:00+24ene594286 0.3 1015350
12:00+29e7929100 0.0 1014926
15:00+31e7927100 0.0 10141569
18:00+29ene81328100 0.0 1013881
21:00+26e9173296 0.0 1013645
18 august, thu
thu1800:00+24ne61237100 0.0 1013436
03:00+22ene51243100 0.1 1013314
06:00+21ene6134687 0.0 1012375
09:00+24ene71239100 0.0 1013589
12:00+26e81136100 0.0 1012705
15:00+27ne7837100 0.1 1011386
18:00+27ne6123296 0.1 1011498
21:00+24ne613426 0.1 1010336